Miscellaneous Local Product
Issued by NWS Hastings, NE

Home | Current Version | Previous Version | Graphics & Text | Print | Product List | Glossary On
Versions: 1 2 3 4 5 6 7 8 9 10 11 12 13 14 15 16 17 18 19 20 21 22 23 24 25 26 27 28 29 30 31 32 33 34 35 36 37 38 39 40 41 42 43 44 45 46 47 48 49 50
000
AXUS43 KGID 280002
MISGRI

GID CWA HOURLY WEATHER ROUNDUP
NATIONAL WEATHER SERVICE HASTINGS NE
600 PM CST TUE JAN 27 2015

NOTE: "FAIR" INDICATES FEW OR NO CLOUDS BELOW 12,000 FEET WITH NO
SIGNIFICANT WEATHER AND/OR OBSTRUCTIONS TO VISIBILITY.

...SOUTH CENTRAL NEBRASKA...

CITY           SKY/WX    TMP DP  RH WIND       PRES   REMARKS
GRAND ISLAND   CLEAR     53  34  48 SE9       29.95S
HASTINGS       CLEAR     57  31  37 SE10      29.94S
KEARNEY        CLEAR     55  30  38 S5        29.93S
ORD            CLEAR     53  33  46 E3        29.91F
YORK           CLEAR     52  32  46 SE9       29.97S
AURORA         CLEAR     51  32  49 SE9       29.95F
LEXINGTON      CLEAR     60  32  34 E3        29.92S
HOLDREGE       CLEAR     63  30  29 CALM      29.93S
HEBRON         CLEAR     56  31  38 SE5       29.96F

...NEBRASKA PANHANDLE...

CITY           SKY/WX    TMP DP  RH WIND       PRES   REMARKS
CHADRON        PTCLDY    54  34  46 E6        29.91F
ALLIANCE       PTCLDY    54  28  36 S6        29.94F
SCOTTSBLUFF      N/A    N/A N/A N/A MISG      29.95F
SIDNEY         MOCLDY    53  33  46 S5        29.98F

...WESTERN AND NORTH CENTRAL NEBRASKA...

CITY           SKY/WX    TMP DP  RH WIND       PRES   REMARKS
VALENTINE      CLEAR     57  33  40 SW7       29.88S
AINSWORTH      CLEAR     60  33  35 CALM      29.89S
ONEILL         CLEAR     53  37  54 SE8       29.91F
BROKEN BOW     CLEAR     59  34  39 SE7       29.91S
IMPERIAL       PTCLDY    60  26  27 NE3       29.95F
NORTH PLATTE   CLEAR     55  28  35 CALM      29.92F
MCCOOK         CLEAR     69  29  22 CALM      29.93F

...EASTERN NEBRASKA...

CITY           SKY/WX    TMP DP  RH WIND       PRES   REMARKS
NORFOLK        CLEAR     46  34  62 SE8       29.97R
SO SIOUX CITY  CLEAR     42  34  73 SE9       30.02S
TEKAMAH        CLEAR     43  32  65 SE9       30.03S
COLUMBUS       CLEAR     50  30  46 E7        30.00S
ALBION         CLEAR     46  33  60 SE7       29.95F
OMAHA EPPLEY   PTCLDY    47  31  53 SE10      30.04S
OFFUTT AFB     CLEAR     43  30  59 E9        30.04R
MILLARD        CLEAR     49  32  52 SE7       30.03S
LINCOLN        CLEAR     51  31  46 SE9       30.02R
NEBRASKA CITY  CLEAR     48  26  41 SE8       30.04S
BEATRICE       CLEAR     55  33  42 SE7       30.00S
FALLS CITY     CLEAR     47  30  51 SE7       30.05R

...NORTHERN KANSAS...

CITY           SKY/WX    TMP DP  RH WIND       PRES   REMARKS
GOODLAND       MOCLDY    60  27  28 S6        29.98F
HILL CITY      CLEAR     67  30  25 CALM      29.94R
NORTON         CLEAR     63  21  20 CALM      29.92F
PHILLIPSBURG   CLEAR     63  32  31 E7        29.92S
SMITH CENTER   CLEAR     54  30  40 E10       29.94R
BELOIT         CLEAR     61  34  36 E8        29.92S
HAYS           CLEAR     70  25  18 SW14      29.95R
RUSSELL        CLEAR     67  27  22 SW12      29.92R
CONCORDIA      CLEAR     57  34  41 SE7       29.94F
SALINA         CLEAR     63  37  38 SE10      29.94F
TOPEKA         CLEAR     49  31  49 E8        30.05S



USA.gov is the U.S. government's official web portal to all federal, state and local government web resources and services.